Regional Weather Roundup
Issued by NWS

Home | Current Version | Previous Version | Graphics & Text | Print | Product List | Glossary On
Versions: 1 2 3 4 5 6 7 8 9 10 11 12 13 14 15 16 17 18 19 20 21 22 23 24 25 26 27 28 29 30 31 32 33 34 35 36 37 38 39 40 41 42 43 44 45 46 47 48 49 50
000
ASUS43 KMPX 241301
RWRMN
WEATHER ROUNDUP FOR MINNESOTA
NATIONAL WEATHER SERVICE TWIN CITIES/CHANHASSEN MN
700 AM CST FRI NOV 24 2017


NOTE: "FAIR" INDICATES FEW OR NO CLOUDS BELOW 12,000 FEET WITH NO
SIGNIFICANT WEATHER AND/OR OBSTRUCTIONS TO VISIBILITY. N/A MEANS
CURRENT SKY AND/OR WEATHER CONDITIONS ARE NOT AVAILABLE.

MNZ060>063-068>070-241400-
   Twin Cities Metro

CITY           SKY/WX    TMP DP  RH WIND       PRES   REMARKS
TWIN CITIES    PTCLDY    48  39  71 S10       29.37F
ST PAUL        CLEAR     41  37  86 SE7       29.38F
CRYSTAL        CLEAR     45  35  68 S9        29.34F
BLAINE         PTCLDY   N/A N/A N/A S12G17    29.34F
LAKEVILLE      CLEAR     45  37  76 S7        29.38F
EDEN PRAIRIE   CLEAR     46  38  73 S14       29.36F
SOUTH ST PAUL  CLEAR     44  37  74 SE7       29.38F
LAKE ELMO      FAIR      45  37  76 S13       29.38F
$$
MNZ001>005-007-008-013>017-022>024-027-028-241400-
   Northwest Minnesota

CITY           SKY/WX    TMP DP  RH WIND       PRES   REMARKS
BEMIDJI        LGT RAIN  43  37  80 W12G20    29.26R
HALLOCK        CLOUDY    36  34  93 NW3       29.27R
ROSEAU         CLOUDY    39  34  81 NW5       29.24S
WARROAD        CLOUDY    39  36  87 W8        29.23F
CROOKSTON      MIX PCPN  39  36  87 NW7       29.30R
FOSSTON        LGT RAIN  37  36  93 S5        29.29S
DETROIT LAKES  MOCLDY    45  36  70 W7        29.32R
MOORHEAD       CLOUDY    39  34  81 CALM      29.31S
PARK RAPIDS    CLOUDY    36  33  89 NW7       29.28S
MAHNOMEN       LGT RAIN  40  37  86 S3        29.27F
$$
MNZ006-009>011-018-025>026-241400-
   North Central Minnesota

CITY           SKY/WX    TMP DP  RH WIND       PRES   REMARKS
BAUDETTE       CLOUDY    39  35  86 NW9       29.22R
FLAG ISLAND    CLOUDY    36  32  87 NW5       29.21S
INTL FALLS     MOCLDY    42  35  76 W10       29.21R
WASKISH        CLOUDY    37  36  93 W7        29.26R
BIG FORK       CLOUDY    37  36  93 CALM      29.23R
LONGVILLE      CLOUDY    41  37  87 SW5       29.25R
GRAND RAPIDS   CLOUDY    41  36  82 SE3       29.26F
CRANE LAKE     CLOUDY    36  34  93 S3        29.21S
ORR            CLEAR     39  34  81 CALM      29.19R
COOK           CLOUDY    39  36  87 SW3       29.22R
WALKER         PTSUNNY   45  36  71 W12       29.27R
$$
MNZ012-019>021-037-241400-
   Northeast Minnesota

CITY           SKY/WX    TMP DP  RH WIND       PRES   REMARKS
DULUTH         CLOUDY    38  34  85 W16       29.26F
ELY            CLOUDY    39  34  81 CALM      29.20F
HIBBING        LGT RAIN  39  34  82 VRB5      29.24F
EVELETH        CLOUDY    37  31  78 S7        29.23F
DULUTH HARBOR  MOCLDY    41  36  81 SW8       29.29F
TWO HARBORS    PTCLDY    39  34  81 SW6       29.24F
GRAND MARAIS     N/A     38  33  82 SW5       29.21F
G MARAIS ARPRT CLOUDY    34  27  75 CALM      29.19F
$$
MNZ029>031-032-039>041-046>048-054>057-064-241400-
   West Central Minnesota

CITY           SKY/WX    TMP DP  RH WIND       PRES   REMARKS
FERGUS FALLS   PTCLDY    39  36  87 CALM      29.34R
WHEATON        CLEAR     48  36  61 W9        29.34S
MORRIS         CLOUDY    43  36  75 W5        29.32F
ALEXANDRIA     CLEAR     41  36  82 SW10      29.32F
ELBOW LAKE     FAIR      35  33  93 W7        29.33S WCI  29
WADENA         DRIZZLE   45  37  76 W7        29.27F
GLENWOOD       CLEAR     37  36  93 SW8       29.33F
APPLETON         N/A     37  34  87 W7        29.35R
BENSON         PTCLDY    34  30  86 CALM      29.36R
ORTONVILLE     CLOUDY    48  36  61 W7        29.33F
MADISON        MOCLDY    52  39  62 W9        29.35R
WILLMAR        FAIR      39  36  87 CALM      29.36S
$$
MNZ033>034-036-042>043-049>051-058-059-241400-
   Central Minnesota

CITY           SKY/WX    TMP DP  RH WIND       PRES   REMARKS
ST CLOUD       CLEAR     40  36  86 SW10      29.33S
SAUK CENTRE    PTSUNNY   41  36  81 S3        29.32F
PAYNESVILLE    CLEAR     42  38  84 SW7       29.35R
AITKIN         MOCLDY    37  34  87 S6        29.27F
PINE RIVER     CLOUDY    34  30  86 CALM      29.31F
BRAINERD       CLOUDY    39  34  82 SW7       29.29F
STAPLES        PTCLDY    39  36  87 SW5       29.29S
LONG PRAIRIE   FAIR      37  34  87 S6        29.30F
LITTLE FALLS   PTCLDY    36  32  87 CALM      29.32R
LITCHFIELD     CLOUDY    45  39  81 SW3       29.36R
BUFFALO        PTCLDY    42  36  78 S7        29.35F
MAPLE LAKE     CLEAR     42  37  84 S8        29.33F
HUTCHINSON     CLOUDY    38  36  92 SE3       29.36F
$$
MNZ037-044-045-052-053-241400-
   East Central Minnesota

CITY           SKY/WX    TMP DP  RH WIND       PRES   REMARKS
PRINCETON      CLOUDY    43  37  81 S7        29.32F
MORA           CLEAR     32  32 100 CALM      29.33F
CAMBRIDGE      CLOUDY    46  36  66 W6        29.34S
RUSH CITY      CLEAR     41  36  80 S6        29.32F
MOOSE LAKE     PTCLDY    34  32  93 SW6       29.28F WCI  29
HINCKLEY       FAIR      37  34  87 S3        29.31F
CLOQUET        CLOUDY    39  32  75 SW9       29.28F
MCGREGOR       MOCLDY    41  36  81 S7        29.28F
$$
MNZ071>073-080-081-089-090-097-098-241400-
   Southwest Minnesota

CITY           SKY/WX    TMP DP  RH WIND       PRES   REMARKS
MONTEVIDEO     PTCLDY    45  37  76 W6        29.35R
GRANITE FALLS  CLEAR     45  39  79 S7        29.36F
CANBY          CLEAR     52  38  58 SW15G22   29.36S
MARSHALL       CLEAR     50  39  66 SW20G25   29.35F
REDWOOD FALLS  CLEAR     45  37  73 SW10      29.36F
OLIVIA         CLEAR     39  36  87 S6        29.35S
PIPESTONE      CLEAR     34  30  86 SW6       29.42F WCI  29
WINDOM         CLEAR     45  30  57 SW9       29.41F
WORTHINGTON    CLEAR     44  38  79 SW16      29.42F
JACKSON        CLEAR     41  36  81 S13       29.42F
SLAYTON        PTCLDY    44  38  80 SW17      29.41F
$$
MNZ065>067-074>077-082>085-091>093-241400-
   South Central Minnesota

CITY           SKY/WX    TMP DP  RH WIND       PRES   REMARKS
MANKATO        CLEAR     41  36  82 S8        29.41F
NEW ULM        CLEAR     39  36  87 CALM      29.37F
ST JAMES       CLEAR     45  37  76 S16       29.40F
FAIRMONT       CLEAR     41  36  82 SW12      29.44S
GLENCOE        CLEAR     42  38  83 S10       29.36F
FARIBAULT      CLEAR     43  37  81 S5        29.42F
OWATONNA       CLEAR     45  37  76 S14       29.43F
WASECA         CLEAR     43  36  75 S13       29.44F
ALBERT LEA     CLEAR     46  36  66 S9        29.45F
$$
MNZ078>079-086>088-094>096-241400-
   Southeast Minnesota

CITY           SKY/WX    TMP DP  RH WIND       PRES   REMARKS
ROCHESTER      CLEAR     43  35  73 S17       29.46F
RED WING       CLOUDY    45  34  65 SE5       29.41F
STANTON        CLEAR     46  37  71 S5        29.40F
DODGE CENTER   PTCLDY    43  36  75 S17G23    29.44F
WINONA         CLEAR     46  36  66 E3        29.48F
AUSTIN         CLEAR     39  34  81 S9        29.47F
PRESTON        CLEAR     42  34  71 S12G17    29.49F
$$
ABBREVIATIONS USED IN REMARKS
   TC - TEMPERATURES IN CELSIUS
  WCI - WIND CHILL INDEX
   HX - HEAT INDEX
  VSB - VISIBILITY
$$



USA.gov is the U.S. government's official web portal to all federal, state and local government web resources and services.